Weather History for KOCW - May, 2013

Change the Weather History Date:

Monday, May 20, 2013

  Actual Average (KEWN) Record (KEWN)
Temperature  
Mean Temperature 73 °F 70 °F  
Max Temperature 78 °F 81 °F 95 °F (1964)
Min Temperature 68 °F 60 °F 48 °F (2014)
Degree Days  
Heating Degree Days 0 1  
Month to date heating degree days 29  
Since 1 July heating degree days 2696  
Cooling Degree Days 8 6  
Month to date cooling degree days 90  
Year to date cooling degree days 160  
Growing Degree Days 23 (Base 50)    
Moisture  
Dew Point 66 °F    
Average Humidity 79    
Maximum Humidity 81    
Minimum Humidity 70    
Precipitation  
Precipitation 1.10 in 0.13 in 2.11 in (1980)
Month to date precipitation 2.56  
Year to date precipitation 17.80  
Snow  
Snow 0.00 in - - ()
Month to date snowfall  
Since 1 July snowfall  
Snow Depth -    
Sea Level Pressure  
Sea Level Pressure 30.12 in    
Wind  
Wind Speed 6 mph (South)    
Max Wind Speed 15 mph    
Max Gust Speed 22 mph    
Visibility 10 miles    
Events      
T = Trace of Precipitation, MM = Missing Value Source: NWS Daily Summary

Daily Weather History Graph

Daily Weather History Graph

Search for Another Location

Airport or City:

Trip Planner

Search our weather history database for the weather conditions in past years. The results will help you decide how hot, cold, wet, or windy it might be!

Date:

Astronomy

May. 20, 2013 Rise Set
Actual Time 5:59 AM EDT 8:10 PM EDT
Civil Twilight 5:30 AM EDT 8:39 PM EDT
Nautical Twilight 4:55 AM EDT 9:14 PM EDT
Astronomical Twilight 4:17 AM EDT 9:52 PM EDT
Moon 3:24 PM EDT (5/20) 2:43 AM EDT (5/20)
Length of Visible Light 15h 08m
Length of Day
14h 10m
Waxing Gibbous, 75% of the Moon is Illuminated
May 20
Waxing Gibbous
May 25
Full
May 31
Last Quarter
Jun 8
New
Jun 16
First Quarter

Hourly Weather History & Observations

Time (EDT) Temp. Dew Point Humidity Pressure Visibility Wind Dir Wind Speed Gust Speed Precip Events Conditions
12:15 AM 73.0 °F 66.4 °F 80% 30.15 in 10.0 mi SSE 6.9 mph - N/A   Clear
12:35 AM 73.0 °F 66.4 °F 80% 30.15 in 10.0 mi SSE 9.2 mph - N/A   Clear
12:55 AM 73.0 °F 66.4 °F 80% 30.15 in 10.0 mi SSE 6.9 mph - N/A   Clear
1:15 AM 73.0 °F 66.4 °F 80% 30.14 in 10.0 mi SSE 8.1 mph - N/A   Clear
1:35 AM 73.0 °F 66.4 °F 80% 30.14 in 10.0 mi South 4.6 mph - N/A   Scattered Clouds
1:55 AM 73.0 °F 66.4 °F 80% 30.14 in 10.0 mi SSE 8.1 mph - N/A   Scattered Clouds
2:15 AM 73.0 °F 66.4 °F 80% 30.14 in 10.0 mi SSE 5.8 mph - N/A   Clear
2:35 AM 73.0 °F 66.4 °F 80% 30.13 in 10.0 mi SSE 6.9 mph - N/A   Clear
2:55 AM 73.0 °F 66.4 °F 80% 30.13 in 10.0 mi SSE 5.8 mph - N/A   Scattered Clouds
3:15 AM 73.0 °F 66.4 °F 80% 30.13 in 10.0 mi SSE 5.8 mph - N/A   Clear
3:35 AM 73.0 °F 66.4 °F 80% 30.12 in 10.0 mi SSE 5.8 mph - N/A   Clear
3:55 AM 72.9 °F 66.2 °F 80% 30.12 in 10.0 mi SSE 5.8 mph - N/A   Clear
4:15 AM 73.0 °F 66.4 °F 80% 30.11 in 10.0 mi SSE 4.6 mph - N/A   Scattered Clouds
4:35 AM 72.7 °F 66.2 °F 80% 30.11 in 10.0 mi SSE 5.8 mph - N/A   Clear
4:55 AM 70.7 °F 64.0 °F 79% 30.11 in 10.0 mi South 5.8 mph - N/A   Clear
5:15 AM 70.7 °F 64.0 °F 79% 30.11 in 10.0 mi SSE 5.8 mph - N/A   Clear
5:35 AM 70.7 °F 64.0 °F 79% 30.12 in 10.0 mi SSE 5.8 mph - N/A   Clear
5:55 AM 70.7 °F 64.0 °F 79% 30.13 in 10.0 mi SSE 4.6 mph - N/A   Clear
6:15 AM 70.7 °F 64.0 °F 79% 30.13 in 10.0 mi SSE 5.8 mph - N/A   Clear
6:35 AM 70.7 °F 64.0 °F 79% 30.14 in 10.0 mi SSE 5.8 mph - N/A   Clear
6:55 AM 70.7 °F 64.0 °F 79% 30.14 in 10.0 mi SSE 6.9 mph - N/A   Scattered Clouds
7:15 AM 72.5 °F 65.8 °F 80% 30.14 in 10.0 mi South 3.5 mph - N/A   Scattered Clouds
7:35 AM 73.0 °F 66.4 °F 80% 30.15 in 10.0 mi SSE 3.5 mph - N/A   Clear
7:55 AM 73.0 °F 66.4 °F 80% 30.15 in 10.0 mi South 8.1 mph - N/A   Clear
8:15 AM 73.0 °F 66.0 °F 79% 30.14 in 10.0 mi SSW 10.4 mph - N/A   Clear
8:35 AM 73.0 °F 66.0 °F 79% 30.15 in 10.0 mi South 6.9 mph - N/A   Clear
8:55 AM 78.1 °F 69.4 °F 75% 30.15 in 10.0 mi SSW 12.7 mph 17.3 mph N/A   Clear
9:15 AM 78.1 °F 69.1 °F 74% 30.15 in 10.0 mi SSW 12.7 mph 18.4 mph N/A   Scattered Clouds
9:35 AM 78.1 °F 68.9 °F 73% 30.15 in 10.0 mi SW 15.0 mph 21.9 mph N/A   Scattered Clouds
9:55 AM 78.1 °F 69.1 °F 74% 30.16 in 10.0 mi SSW 11.5 mph 17.3 mph N/A   Scattered Clouds
10:15 AM 77.4 °F 69.1 °F 76% 30.16 in 10.0 mi SSW 8.1 mph - N/A   Scattered Clouds
10:35 AM 78.1 °F 69.4 °F 75% 30.15 in 10.0 mi SSW 8.1 mph - N/A   Scattered Clouds
10:55 AM 78.1 °F 69.1 °F 74% 30.15 in 10.0 mi SSW 8.1 mph - N/A   Clear
11:15 AM 78.1 °F 68.0 °F 71% 30.14 in 10.0 mi SSW 9.2 mph 17.3 mph N/A   Clear
11:35 AM 78.1 °F 67.5 °F 70% 30.14 in 10.0 mi SSW 8.1 mph - N/A   Clear
11:55 AM 78.1 °F 68.0 °F 71% 30.13 in 10.0 mi WSW 8.1 mph - N/A   Scattered Clouds
12:35 PM 73.0 °F 66.4 °F 80% 30.14 in 10.0 mi South 4.6 mph - 0.08 in   Scattered Clouds
12:55 PM 73.0 °F 66.4 °F 80% 30.13 in 10.0 mi Calm Calm - 0.08 in   Clear
1:15 PM 73.0 °F 66.4 °F 80% 30.12 in 10.0 mi South 3.5 mph - N/A   Clear
1:35 PM 76.5 °F 69.6 °F 79% 30.12 in 10.0 mi South 5.8 mph - N/A   Clear
1:55 PM 78.1 °F 70.5 °F 77% 30.11 in 10.0 mi SSE 4.6 mph - N/A   Clear
2:35 PM 78.1 °F 68.5 °F 72% 30.09 in 10.0 mi South 6.9 mph - N/A   Clear
2:55 PM 77.7 °F 69.1 °F 75% 30.11 in 5.0 mi WSW 4.6 mph - 0.08 in   Mostly Cloudy
3:15 PM 73.0 °F 66.4 °F 80% 30.12 in 1.0 mi SSW 5.8 mph - 0.69 in   Overcast
3:35 PM 70.7 °F 64.0 °F 79% 30.12 in 10.0 mi Calm Calm - 0.79 in   Mostly Cloudy
3:55 PM 73.0 °F 66.4 °F 80% 30.11 in 10.0 mi South 3.5 mph - 0.81 in   Scattered Clouds
4:15 PM 73.0 °F 66.4 °F 80% 30.09 in 10.0 mi SE 3.5 mph - N/A   Clear
4:35 PM 73.9 °F 67.1 °F 79% 30.08 in 10.0 mi SSE 4.6 mph - N/A   Clear
4:55 PM 75.4 °F 68.7 °F 80% 30.08 in 10.0 mi South 5.8 mph - N/A   Clear
5:15 PM 74.3 °F 67.6 °F 80% 30.08 in 10.0 mi SSE 3.5 mph - N/A   Clear
5:35 PM 74.1 °F 67.3 °F 79% 30.08 in 10.0 mi Calm Calm - N/A   Scattered Clouds
5:55 PM 73.0 °F 66.4 °F 80% 30.08 in 5.0 mi SSW 5.8 mph - 0.03 in   Mostly Cloudy
6:15 PM 73.0 °F 66.4 °F 80% 30.08 in 10.0 mi SW 12.7 mph 16.1 mph 0.01 in   Scattered Clouds
6:35 PM 73.0 °F 66.4 °F 80% 30.08 in 5.0 mi SSW 6.9 mph - 0.06 in   Mostly Cloudy
6:55 PM 73.0 °F 66.6 °F 80% 30.08 in 7.0 mi South 4.6 mph - 0.10 in   Scattered Clouds
7:15 PM 73.0 °F 66.4 °F 80% 30.08 in 10.0 mi SSW 4.6 mph - N/A   Clear
7:35 PM 73.0 °F 66.4 °F 80% 30.08 in 10.0 mi SSW 4.6 mph - N/A   Clear
7:55 PM 73.0 °F 66.4 °F 80% 30.08 in 10.0 mi South 5.8 mph - N/A   Clear
8:15 PM 73.0 °F 66.6 °F 80% 30.08 in 10.0 mi South 3.5 mph - N/A   Clear
8:35 PM 73.0 °F 66.7 °F 81% 30.08 in 10.0 mi Calm Calm - N/A   Clear
8:55 PM 70.7 °F 64.4 °F 80% 30.09 in 10.0 mi South 3.5 mph - N/A   Light Drizzle
9:15 PM 70.7 °F 64.4 °F 80% 30.09 in 10.0 mi South 4.6 mph - N/A   Clear
9:35 PM 70.7 °F 64.4 °F 80% 30.09 in 10.0 mi Calm Calm - N/A   Clear
9:55 PM 70.5 °F 64.2 °F 80% 30.09 in 10.0 mi Calm Calm - N/A   Clear
10:15 PM 69.1 °F 62.8 °F 80% 30.09 in 10.0 mi Calm Calm - N/A   Clear
10:35 PM 68.0 °F 61.7 °F 80% 30.09 in 10.0 mi South 3.5 mph - N/A   Clear
10:55 PM 69.1 °F 62.8 °F 80% 30.08 in 10.0 mi South 3.5 mph - N/A   Clear
11:15 PM 70.7 °F 64.4 °F 80% 30.08 in 10.0 mi South 4.6 mph - N/A   Clear
11:35 PM 70.7 °F 64.4 °F 80% 30.08 in 10.0 mi South 4.6 mph - N/A   Clear
11:55 PM 70.7 °F 64.4 °F 80% 30.08 in 10.0 mi SSW 4.6 mph - N/A   Clear